| time (UTC) | temp F | wind direction | speed MPH | gust MPH | rain 1hr in | rain 24hr in | rain mn in | humidity % | barometer mb |
| 20260510211936 | 59 | 273 | 10.0 | 17.0 | 0.00 | 0.00 | 0.00 | 78 | 1015.0 |
| 20260510211424 | 59 | 296 | 8.0 | 16.0 | 0.00 | 0.00 | 0.00 | 78 | 1015.0 |
| 20260510210930 | 59 | 242 | 9.0 | 16.0 | 0.00 | 0.00 | 0.00 | 78 | 1015.1 |
| 20260510210437 | 60 | 314 | 6.0 | 13.0 | 0.00 | 0.00 | 0.00 | 78 | 1015.1 |
| 20260510205924 | 60 | 3 | 3.0 | 12.0 | 0.00 | 0.00 | 0.00 | 79 | 1015.2 |
| 20260510205427 | 59 | 194 | 7.0 | 17.0 | 0.00 | 0.00 | 0.00 | 78 | 1015.2 |
| 20260510205002 | 59 | 304 | 9.0 | 17.0 | 0.00 | 0.00 | 0.00 | 78 | 1015.2 |
| 20260510204427 | 59 | 280 | 8.0 | 17.0 | 0.00 | 0.00 | 0.00 | 78 | 1015.2 |
| 20260510203934 | 59 | 313 | 5.0 | 17.0 | 0.00 | 0.00 | 0.00 | 78 | 1015.3 |
| 20260510203440 | 59 | 292 | 7.0 | 15.0 | 0.00 | 0.00 | 0.00 | 79 | 1015.3 |
| 20260510202926 | 58 | 295 | 7.0 | 20.0 | 0.00 | 0.00 | 0.00 | 80 | 1015.4 |
| 20260510202436 | 58 | 297 | 9.0 | 20.0 | 0.00 | 0.00 | 0.00 | 80 | 1015.4 |
| 20260510201937 | 58 | 278 | 10.0 | 20.0 | 0.00 | 0.00 | 0.00 | 80 | 1015.5 |
| 20260510201443 | 58 | 278 | 11.0 | 20.0 | 0.00 | 0.00 | 0.00 | 80 | 1015.6 |
| 20260510200958 | 58 | 242 | 5.0 | 14.0 | 0.00 | 0.00 | 0.00 | 81 | 1015.6 |
| 20260510200423 | 58 | 277 | 8.0 | 14.0 | 0.00 | 0.00 | 0.00 | 81 | 1015.6 |
| 20260510195929 | 58 | 281 | 5.0 | 16.0 | 0.00 | 0.00 | 0.00 | 81 | 1015.8 |
| 20260510195435 | 58 | 303 | 9.0 | 16.0 | 0.00 | 0.00 | 0.00 | 81 | 1015.9 |
| 20260510194923 | 58 | 192 | 5.0 | 13.0 | 0.00 | 0.00 | 0.00 | 81 | 1015.9 |
| 20260510194443 | 57 | 275 | 6.0 | 13.0 | 0.00 | 0.00 | 0.00 | 82 | 1015.9 |
| 20260510193927 | 57 | 261 | 4.0 | 13.0 | 0.00 | 0.00 | 0.00 | 82 | 1015.9 |
| 20260510193433 | 57 | 270 | 4.0 | 13.0 | 0.00 | 0.00 | 0.00 | 82 | 1015.9 |
| 20260510192940 | 57 | 270 | 4.0 | 13.0 | 0.00 | 0.00 | 0.00 | 82 | 1016.0 |
| 20260510192425 | 57 | 239 | 5.0 | 12.0 | 0.00 | 0.00 | 0.00 | 82 | 1015.9 |
| 20260510191931 | 57 | 296 | 4.0 | 14.0 | 0.00 | 0.00 | 0.00 | 82 | 1016.0 |
| 20260510191436 | 57 | 19 | 6.0 | 14.0 | 0.00 | 0.00 | 0.00 | 82 | 1016.0 |
| 20260510190936 | 57 | 335 | 5.0 | 12.0 | 0.00 | 0.00 | 0.00 | 83 | 1016.1 |
| 20260510190457 | 56 | 313 | 5.0 | 15.0 | 0.00 | 0.00 | 0.00 | 83 | 1016.1 |
| 20260510185931 | 57 | 249 | 7.0 | 15.0 | 0.00 | 0.00 | 0.00 | 83 | 1016.1 |
| 20260510185438 | 57 | 326 | 5.0 | 10.0 | 0.00 | 0.00 | 0.00 | 84 | 1016.0 |
| 20260510184924 | 56 | 299 | 3.0 | 9.0 | 0.00 | 0.00 | 0.00 | 84 | 1016.0 |
| 20260510184433 | 56 | 313 | 5.0 | 11.0 | 0.00 | 0.00 | 0.00 | 84 | 1016.0 |
| 20260510183939 | 56 | 289 | 6.0 | 11.0 | 0.00 | 0.00 | 0.00 | 84 | 1016.0 |
| 20260510183441 | 56 | 328 | 3.0 | 10.0 | 0.00 | 0.00 | 0.00 | 85 | 1015.9 |
| 20260510182956 | 56 | 102 | 4.0 | 10.0 | 0.00 | 0.00 | 0.00 | 85 | 1015.9 |
| 20260510182421 | 55 | 295 | 6.0 | 9.0 | 0.00 | 0.00 | 0.00 | 86 | 1015.8 |
| 20260510181927 | 55 | 332 | 4.0 | 11.0 | 0.00 | 0.00 | 0.00 | 86 | 1015.9 |
| 20260510181433 | 55 | 270 | 4.0 | 11.0 | 0.00 | 0.00 | 0.00 | 86 | 1015.9 |
| 20260510180938 | 55 | 298 | 5.0 | 12.0 | 0.00 | 0.00 | 0.00 | 86 | 1015.8 |
| 20260510180423 | 55 | 230 | 6.0 | 12.0 | 0.00 | 0.00 | 0.00 | 86 | 1016.0 |
| 20260510175924 | 55 | 323 | 7.0 | 19.0 | 0.00 | 0.00 | 0.00 | 87 | 1016.0 |
| 20260510175429 | 55 | 322 | 6.0 | 19.0 | 0.00 | 0.00 | 0.00 | 87 | 1016.0 |
| 20260510174936 | 55 | 273 | 10.0 | 18.0 | 0.00 | 0.00 | 0.00 | 87 | 1016.0 |
| 20260510174422 | 54 | 268 | 9.0 | 18.0 | 0.00 | 0.00 | 0.00 | 87 | 1016.0 |
| 20260510173927 | 54 | 276 | 7.0 | 14.0 | 0.00 | 0.00 | 0.00 | 88 | 1016.0 |
| 20260510173433 | 54 | 221 | 3.0 | 25.0 | 0.00 | 0.00 | 0.00 | 88 | 1015.9 |
| 20260510172939 | 54 | 333 | 8.0 | 25.0 | 0.00 | 0.00 | 0.00 | 88 | 1015.8 |
| 20260510172452 | 54 | 278 | 8.0 | 18.0 | 0.00 | 0.00 | 0.00 | 88 | 1015.9 |
| 20260510171935 | 54 | 282 | 6.0 | 15.0 | 0.00 | 0.00 | 0.00 | 88 | 1015.8 |
| 20260510171440 | 54 | 200 | 7.0 | 16.0 | 0.00 | 0.00 | 0.00 | 88 | 1015.8 |
| 20260510170926 | 53 | 295 | 9.0 | 17.0 | 0.00 | 0.00 | 0.00 | 88 | 1015.8 |
| 20260510170458 | 53 | 273 | 8.0 | 17.0 | 0.00 | 0.00 | 0.00 | 89 | 1015.8 |
| 20260510165923 | 53 | 289 | 8.0 | 15.0 | 0.00 | 0.00 | 0.00 | 89 | 1015.8 |
| 20260510165431 | 53 | 204 | 6.0 | 11.0 | 0.00 | 0.00 | 0.00 | 89 | 1015.8 |
| 20260510164931 | 53 | 248 | 6.0 | 10.0 | 0.00 | 0.00 | 0.00 | 89 | 1015.8 |
| 20260510164440 | 53 | 284 | 3.0 | 14.0 | 0.00 | 0.00 | 0.00 | 89 | 1015.8 |
| 20260510163928 | 53 | 287 | 3.0 | 14.0 | 0.00 | 0.00 | 0.00 | 89 | 1015.8 |
| 20260510163434 | 53 | 247 | 7.0 | 13.0 | 0.00 | 0.00 | 0.00 | 89 | 1015.7 |
| 20260510162921 | 53 | 278 | 3.0 | 16.0 | 0.00 | 0.00 | 0.00 | 89 | 1015.6 |
| 20260510162448 | 53 | 270 | 9.0 | 17.0 | 0.00 | 0.00 | 0.00 | 89 | 1015.6 |
| 20260510161935 | 53 | 263 | 10.0 | 17.0 | 0.00 | 0.00 | 0.00 | 89 | 1015.6 |
| 20260510161436 | 53 | 232 | 5.0 | 14.0 | 0.00 | 0.00 | 0.00 | 89 | 1015.4 |
| 20260510160923 | 53 | 222 | 7.0 | 14.0 | 0.00 | 0.00 | 0.00 | 89 | 1015.4 |
| 20260510160458 | 53 | 239 | 7.0 | 14.0 | 0.00 | 0.00 | 0.00 | 89 | 1015.4 |
| 20260510155922 | 53 | 283 | 7.0 | 17.0 | 0.00 | 0.00 | 0.00 | 89 | 1015.4 |
| 20260510155449 | 53 | 264 | 4.0 | 17.0 | 0.00 | 0.00 | 0.00 | 89 | 1015.3 |
| 20260510154934 | 53 | 219 | 6.0 | 17.0 | 0.00 | 0.00 | 0.00 | 89 | 1015.3 |
| 20260510154441 | 53 | 278 | 7.0 | 17.0 | 0.00 | 0.00 | 0.00 | 89 | 1015.3 |
| 20260510153947 | 53 | 301 | 6.0 | 17.0 | 0.00 | 0.00 | 0.00 | 89 | 1015.3 |
| 20260510153433 | 53 | 289 | 8.0 | 17.0 | 0.00 | 0.00 | 0.00 | 89 | 1015.3 |
| 20260510152940 | 53 | 155 | 7.0 | 15.0 | 0.00 | 0.00 | 0.00 | 89 | 1015.1 |
| 20260510152426 | 53 | 226 | 7.0 | 15.0 | 0.00 | 0.00 | 0.00 | 89 | 1015.0 |
| 20260510151933 | 53 | 273 | 7.0 | 15.0 | 0.00 | 0.00 | 0.00 | 89 | 1015.2 |
| 20260510151421 | 53 | 237 | 6.0 | 15.0 | 0.00 | 0.00 | 0.00 | 89 | 1015.1 |
| 20260510150929 | 53 | 292 | 4.0 | 13.0 | 0.00 | 0.00 | 0.00 | 89 | 1015.1 |
| 20260510150433 | 53 | 270 | 5.0 | 13.0 | 0.00 | 0.00 | 0.00 | 89 | 1015.1 |
| 20260510145939 | 53 | 339 | 4.0 | 10.0 | 0.00 | 0.00 | 0.00 | 89 | 1015.1 |
| 20260510145446 | 53 | 217 | 3.0 | 11.0 | 0.00 | 0.00 | 0.00 | 89 | 1015.0 |
| 20260510144950 | 53 | 287 | 6.0 | 11.0 | 0.00 | 0.00 | 0.00 | 89 | 1014.9 |
| 20260510144438 | 53 | 261 | 5.0 | 14.0 | 0.00 | 0.00 | 0.00 | 89 | 1015.0 |
| 20260510143924 | 53 | 294 | 7.0 | 14.0 | 0.00 | 0.00 | 0.00 | 89 | 1015.0 |
| 20260510143431 | 53 | 360 | 6.0 | 14.0 | 0.00 | 0.00 | 0.00 | 89 | 1015.0 |
| 20260510142932 | 53 | 277 | 3.0 | 10.0 | 0.00 | 0.00 | 0.00 | 89 | 1014.9 |
| 20260510142436 | 53 | 299 | 4.0 | 10.0 | 0.00 | 0.00 | 0.00 | 89 | 1014.9 |
| 20260510141924 | 53 | 302 | 3.0 | 13.0 | 0.00 | 0.00 | 0.00 | 89 | 1014.8 |
| 20260510141459 | 53 | 215 | 7.0 | 13.0 | 0.00 | 0.00 | 0.00 | 89 | 1014.7 |
| 20260510140926 | 53 | 237 | 7.0 | 12.0 | 0.00 | 0.00 | 0.00 | 89 | 1014.6 |
| 20260510140432 | 53 | 275 | 6.0 | 11.0 | 0.00 | 0.00 | 0.00 | 89 | 1014.6 |
| 20260510135939 | 53 | 299 | 5.0 | 13.0 | 0.00 | 0.00 | 0.00 | 89 | 1014.5 |
| 20260510135444 | 53 | 270 | 5.0 | 13.0 | 0.00 | 0.00 | 0.00 | 89 | 1014.5 |
| 20260510134931 | 53 | 247 | 6.0 | 21.0 | 0.00 | 0.00 | 0.00 | 89 | 1014.4 |
| 20260510134437 | 53 | 309 | 6.0 | 21.0 | 0.00 | 0.00 | 0.00 | 89 | 1014.4 |
| 20260510133923 | 53 | 318 | 5.0 | 13.0 | 0.00 | 0.00 | 0.00 | 89 | 1014.4 |
| 20260510133428 | 53 | 282 | 5.0 | 13.0 | 0.00 | 0.00 | 0.00 | 89 | 1014.2 |
| 20260510132934 | 53 | 349 | 5.0 | 13.0 | 0.00 | 0.00 | 0.00 | 89 | 1014.3 |
| 20260510132441 | 53 | 289 | 5.0 | 11.0 | 0.00 | 0.00 | 0.00 | 89 | 1014.2 |
| 20260510131922 | 53 | 222 | 6.0 | 11.0 | 0.00 | 0.00 | 0.00 | 89 | 1014.2 |
| 20260510131429 | 53 | 273 | 5.0 | 9.0 | 0.00 | 0.00 | 0.00 | 89 | 1014.1 |
| 20260510130935 | 53 | 249 | 3.0 | 9.0 | 0.00 | 0.00 | 0.00 | 89 | 1014.1 |
| 20260510130440 | 53 | 287 | 2.0 | 10.0 | 0.00 | 0.00 | 0.00 | 89 | 1014.2 |
| 20260510125924 | 53 | 187 | 4.0 | 10.0 | 0.00 | 0.00 | 0.00 | 89 | 1014.1 |
| 20260510125454 | 53 | 219 | 6.0 | 11.0 | 0.00 | 0.00 | 0.00 | 89 | 1014.2 |
| 20260510124941 | 53 | 316 | 5.0 | 12.0 | 0.00 | 0.00 | 0.00 | 89 | 1014.1 |
| 20260510124442 | 53 | 268 | 6.0 | 15.0 | 0.00 | 0.00 | 0.00 | 89 | 1014.2 |
| 20260510123949 | 53 | 337 | 10.0 | 19.0 | 0.00 | 0.00 | 0.00 | 89 | 1014.1 |
| 20260510123428 | 53 | 285 | 6.0 | 19.0 | 0.00 | 0.00 | 0.00 | 89 | 1014.1 |
| 20260510122936 | 53 | 324 | 4.0 | 12.0 | 0.00 | 0.00 | 0.00 | 89 | 1014.0 |
| 20260510122425 | 53 | 313 | 2.0 | 7.0 | 0.00 | 0.00 | 0.00 | 89 | 1014.1 |
| 20260510121933 | 53 | 199 | 2.0 | 14.0 | 0.00 | 0.00 | 0.00 | 89 | 1014.0 |
| 20260510121438 | 53 | 236 | 6.0 | 14.0 | 0.00 | 0.00 | 0.00 | 89 | 1014.1 |
| 20260510120940 | 53 | 254 | 5.0 | 13.0 | 0.00 | 0.00 | 0.00 | 89 | 1014.2 |
| 20260510120424 | 53 | 326 | 3.0 | 11.0 | 0.00 | 0.00 | 0.00 | 89 | 1014.2 |
| 20260510115930 | 53 | 337 | 5.0 | 17.0 | 0.00 | 0.00 | 0.00 | 89 | 1014.2 |
| 20260510115436 | 53 | 313 | 3.0 | 14.0 | 0.00 | 0.00 | 0.00 | 89 | 1014.3 |
| 20260510114944 | 53 | 101 | 1.0 | 9.0 | 0.00 | 0.00 | 0.00 | 89 | 1014.1 |
| 20260510114427 | 53 | 268 | 3.0 | 15.0 | 0.00 | 0.00 | 0.00 | 89 | 1014.1 |
| 20260510113957 | 53 | 280 | 3.0 | 13.0 | 0.00 | 0.00 | 0.00 | 89 | 1014.2 |
| 20260510112934 | 53 | 294 | 7.0 | 13.0 | 0.00 | 0.00 | 0.00 | 89 | 1014.2 |
| 20260510112440 | 53 | 234 | 4.0 | 10.0 | 0.00 | 0.00 | 0.00 | 89 | 1014.2 |
| 20260510111925 | 53 | 189 | 4.0 | 15.0 | 0.00 | 0.00 | 0.00 | 89 | 1014.2 |
| 20260510111433 | 53 | 297 | 9.0 | 15.0 | 0.00 | 0.00 | 0.00 | 89 | 1014.4 |
| 20260510110937 | 53 | 283 | 6.0 | 14.0 | 0.00 | 0.00 | 0.00 | 89 | 1014.3 |
| 20260510110445 | 53 | 216 | 4.0 | 12.0 | 0.00 | 0.00 | 0.00 | 89 | 1014.3 |
| 20260510105931 | 53 | 295 | 4.0 | 11.0 | 0.00 | 0.00 | 0.00 | 89 | 1014.3 |
| 20260510105434 | 53 | 116 | 5.0 | 11.0 | 0.00 | 0.00 | 0.00 | 89 | 1014.2 |
| 20260510104942 | 53 | 249 | 5.0 | 13.0 | 0.00 | 0.00 | 0.00 | 89 | 1014.2 |
| 20260510104429 | 53 | 221 | 4.0 | 13.0 | 0.00 | 0.00 | 0.00 | 89 | 1014.2 |
| 20260510103935 | 53 | 259 | 5.0 | 21.0 | 0.00 | 0.00 | 0.00 | 89 | 1014.3 |
| 20260510103421 | 53 | 330 | 3.0 | 21.0 | 0.00 | 0.00 | 0.00 | 89 | 1014.3 |
| 20260510102928 | 53 | 66 | 2.0 | 10.0 | 0.00 | 0.00 | 0.00 | 89 | 1014.3 |
| 20260510102436 | 53 | 261 | 2.0 | 11.0 | 0.00 | 0.00 | 0.00 | 89 | 1014.3 |
| 20260510101922 | 53 | 215 | 5.0 | 12.0 | 0.00 | 0.00 | 0.00 | 89 | 1014.4 |
| 20260510101427 | 53 | 252 | 7.0 | 12.0 | 0.00 | 0.00 | 0.00 | 89 | 1014.4 |
| 20260510100934 | 53 | 235 | 4.0 | 9.0 | 0.00 | 0.00 | 0.00 | 89 | 1014.4 |
| 20260510100440 | 53 | 190 | 5.0 | 13.0 | 0.00 | 0.00 | 0.00 | 89 | 1014.4 |
| 20260510095946 | 53 | 134 | 4.0 | 13.0 | 0.00 | 0.00 | 0.00 | 89 | 1014.4 |
| 20260510095435 | 53 | 227 | 2.0 | 15.0 | 0.00 | 0.00 | 0.00 | 89 | 1014.4 |
| 20260510094922 | 53 | 285 | 6.0 | 15.0 | 0.00 | 0.00 | 0.00 | 89 | 1014.4 |
| 20260510094444 | 53 | 270 | 5.0 | 11.0 | 0.00 | 0.00 | 0.00 | 89 | 1014.5 |
| 20260510093929 | 53 | 341 | 4.0 | 11.0 | 0.00 | 0.00 | 0.00 | 89 | 1014.5 |
| 20260510093435 | 53 | 258 | 6.0 | 12.0 | 0.00 | 0.00 | 0.00 | 89 | 1014.5 |
| 20260510092933 | 53 | 242 | 6.0 | 12.0 | 0.00 | 0.00 | 0.00 | 89 | 1014.5 |
| 20260510092422 | 53 | 280 | 4.0 | 14.0 | 0.00 | 0.00 | 0.00 | 89 | 1014.4 |
| 20260510091928 | 53 | 308 | 6.0 | 15.0 | 0.00 | 0.00 | 0.00 | 89 | 1014.4 |
| 20260510091435 | 53 | 251 | 5.0 | 17.0 | 0.00 | 0.00 | 0.00 | 89 | 1014.4 |
| 20260510090921 | 53 | 333 | 8.0 | 17.0 | 0.00 | 0.00 | 0.00 | 89 | 1014.5 |
| 20260510090441 | 53 | 22 | 5.0 | 13.0 | 0.00 | 0.00 | 0.00 | 89 | 1014.4 |
| 20260510085946 | 53 | 249 | 4.0 | 17.0 | 0.00 | 0.00 | 0.00 | 89 | 1014.5 |
| 20260510085431 | 53 | 221 | 7.0 | 17.0 | 0.00 | 0.00 | 0.00 | 89 | 1014.5 |
| 20260510084940 | 53 | 254 | 6.0 | 16.0 | 0.00 | 0.00 | 0.00 | 89 | 1014.4 |
| 20260510084446 | 53 | 244 | 7.0 | 21.0 | 0.00 | 0.00 | 0.00 | 89 | 1014.5 |
| 20260510083931 | 53 | 291 | 11.0 | 21.0 | 0.00 | 0.00 | 0.00 | 89 | 1014.5 |
| 20260510083434 | 53 | 247 | 9.0 | 23.0 | 0.00 | 0.00 | 0.00 | 89 | 1014.5 |
| 20260510082939 | 53 | 191 | 12.0 | 23.0 | 0.00 | 0.00 | 0.00 | 89 | 1014.5 |
| 20260510082424 | 53 | 285 | 11.0 | 19.0 | 0.00 | 0.00 | 0.00 | 89 | 1014.5 |
| 20260510081931 | 53 | 258 | 11.0 | 21.0 | 0.00 | 0.00 | 0.00 | 89 | 1014.5 |
| 20260510081440 | 53 | 233 | 11.0 | 23.0 | 0.00 | 0.00 | 0.00 | 89 | 1014.6 |
| 20260510080925 | 53 | 320 | 11.0 | 23.0 | 0.00 | 0.00 | 0.00 | 89 | 1014.5 |
| 20260510080427 | 53 | 242 | 7.0 | 14.0 | 0.00 | 0.00 | 0.00 | 89 | 1014.5 |
| 20260510075943 | 53 | 197 | 7.0 | 17.0 | 0.00 | 0.00 | 0.00 | 89 | 1014.7 |
| 20260510075429 | 53 | 263 | 8.0 | 20.0 | 0.00 | 0.00 | 0.00 | 89 | 1014.7 |
| 20260510074933 | 53 | 256 | 11.0 | 26.0 | 0.00 | 0.00 | 0.00 | 89 | 1014.6 |
| 20260510074421 | 53 | 251 | 14.0 | 26.0 | 0.00 | 0.00 | 0.00 | 89 | 1014.6 |
| 20260510073926 | 53 | 228 | 11.0 | 23.0 | 0.00 | 0.00 | 0.00 | 89 | 1014.7 |
| 20260510073431 | 53 | 244 | 11.0 | 20.0 | 0.00 | 0.00 | 0.00 | 89 | 1014.7 |
| 20260510072937 | 53 | 348 | 9.0 | 24.0 | 0.00 | 0.00 | 0.00 | 88 | 1014.8 |
| 20260510072421 | 53 | 278 | 11.0 | 24.0 | 0.00 | 0.00 | 0.00 | 88 | 1014.9 |
| 20260510071949 | 53 | 177 | 9.0 | 18.0 | 0.00 | 0.00 | 0.00 | 88 | 1014.8 |
| 20260510071434 | 53 | 282 | 11.0 | 19.0 | 0.00 | 0.00 | 0.00 | 88 | 1014.9 |
| 20260510070922 | 53 | 264 | 8.0 | 19.0 | 0.00 | 0.00 | 0.00 | 88 | 1014.9 |
| 20260510070516 | 53 | 290 | 11.0 | 20.0 | 0.00 | 0.00 | 0.00 | 88 | 1014.8 |
| 20260510065953 | 53 | 251 | 7.0 | 23.0 | 0.00 | 0.00 | 0.00 | 88 | 1014.8 |
| 20260510065436 | 53 | 290 | 14.0 | 23.0 | 0.00 | 0.00 | 0.00 | 88 | 1014.7 |
| 20260510064940 | 53 | 269 | 10.0 | 22.0 | 0.00 | 0.00 | 0.00 | 88 | 1014.7 |
| 20260510064427 | 53 | 273 | 9.0 | 19.0 | 0.00 | 0.00 | 0.00 | 88 | 1014.7 |
| 20260510063933 | 53 | 236 | 6.0 | 18.0 | 0.00 | 0.00 | 0.00 | 88 | 1014.8 |
| 20260510063421 | 53 | 258 | 8.0 | 18.0 | 0.00 | 0.00 | 0.00 | 88 | 1014.8 |
| 20260510062927 | 53 | 286 | 7.0 | 16.0 | 0.00 | 0.00 | 0.00 | 88 | 1014.8 |
| 20260510062434 | 53 | 222 | 4.0 | 16.0 | 0.00 | 0.00 | 0.00 | 88 | 1014.8 |
| 20260510061922 | 53 | 270 | 8.0 | 18.0 | 0.00 | 0.00 | 0.00 | 88 | 1014.7 |
| 20260510061425 | 53 | 219 | 5.0 | 21.0 | 0.00 | 0.00 | 0.00 | 88 | 1014.8 |
| 20260510060930 | 53 | 270 | 10.0 | 21.0 | 0.00 | 0.00 | 0.00 | 88 | 1014.8 |
| 20260510060438 | 53 | 206 | 8.0 | 21.0 | 0.00 | 0.00 | 0.00 | 87 | 1014.7 |
| 20260510055927 | 53 | 273 | 10.0 | 21.0 | 0.00 | 0.00 | 0.00 | 87 | 1014.7 |
| 20260510055433 | 53 | 261 | 10.0 | 19.0 | 0.00 | 0.00 | 0.00 | 87 | 1014.7 |
| 20260510054922 | 53 | 219 | 10.0 | 19.0 | 0.00 | 0.00 | 0.00 | 87 | 1014.6 |
| 20260510054431 | 53 | 229 | 8.0 | 19.0 | 0.00 | 0.00 | 0.00 | 87 | 1014.7 |
| 20260510053932 | 53 | 257 | 7.0 | 20.0 | 0.00 | 0.00 | 0.00 | 87 | 1014.7 |
| 20260510053438 | 54 | 359 | 11.0 | 22.0 | 0.00 | 0.00 | 0.00 | 87 | 1014.7 |
| 20260510052924 | 54 | 256 | 11.0 | 22.0 | 0.00 | 0.00 | 0.00 | 87 | 1014.7 |
| 20260510052433 | 54 | 225 | 10.0 | 19.0 | 0.00 | 0.00 | 0.00 | 87 | 1014.7 |
| 20260510051922 | 54 | 205 | 7.0 | 19.0 | 0.00 | 0.00 | 0.00 | 87 | 1014.7 |
| 20260510051429 | 54 | 249 | 8.0 | 18.0 | 0.00 | 0.00 | 0.00 | 86 | 1014.7 |
| 20260510050935 | 54 | 271 | 10.0 | 21.0 | 0.00 | 0.00 | 0.00 | 87 | 1014.7 |
| 20260510050423 | 54 | 287 | 12.0 | 21.0 | 0.00 | 0.00 | 0.00 | 86 | 1014.7 |
| 20260510045922 | 54 | 256 | 11.0 | 21.0 | 0.00 | 0.00 | 0.00 | 86 | 1014.6 |
| 20260510045431 | 54 | 251 | 11.0 | 28.0 | 0.00 | 0.00 | 0.00 | 86 | 1014.6 |
| 20260510044938 | 54 | 271 | 12.0 | 28.0 | 0.00 | 0.00 | 0.00 | 86 | 1014.6 |
| 20260510044427 | 54 | 232 | 8.0 | 25.0 | 0.00 | 0.00 | 0.00 | 86 | 1014.5 |
| 20260510043933 | 54 | 280 | 11.0 | 25.0 | 0.00 | 0.00 | 0.00 | 86 | 1014.4 |
| 20260510043439 | 54 | 234 | 12.0 | 22.0 | 0.00 | 0.00 | 0.00 | 86 | 1014.4 |
| 20260510042925 | 54 | 258 | 11.0 | 20.0 | 0.00 | 0.00 | 0.00 | 86 | 1014.4 |
| 20260510042430 | 54 | 244 | 11.0 | 20.0 | 0.00 | 0.00 | 0.00 | 86 | 1014.3 |
| 20260510041934 | 54 | 244 | 9.0 | 22.0 | 0.00 | 0.00 | 0.00 | 86 | 1014.2 |
| 20260510041421 | 54 | 230 | 12.0 | 22.0 | 0.00 | 0.00 | 0.00 | 86 | 1014.0 |
| 20260510040929 | 54 | 242 | 10.0 | 24.0 | 0.00 | 0.00 | 0.00 | 86 | 1013.9 |
| 20260510040433 | 54 | 275 | 13.0 | 24.0 | 0.00 | 0.00 | 0.00 | 86 | 1013.8 |
| 20260510035940 | 54 | 256 | 12.0 | 21.0 | 0.00 | 0.00 | 0.00 | 86 | 1013.8 |
| 20260510035423 | 54 | 266 | 11.0 | 22.0 | 0.00 | 0.00 | 0.00 | 86 | 1013.9 |
| 20260510034950 | 54 | 290 | 12.0 | 22.0 | 0.00 | 0.00 | 0.00 | 86 | 1013.8 |
| 20260510034431 | 54 | 275 | 14.0 | 29.0 | 0.00 | 0.00 | 0.00 | 86 | 1013.8 |
| 20260510033939 | 55 | 282 | 12.0 | 29.0 | 0.00 | 0.00 | 0.00 | 86 | 1013.8 |
| 20260510033426 | 55 | 253 | 16.0 | 25.0 | 0.00 | 0.00 | 0.00 | 85 | 1013.6 |
| 20260510032931 | 55 | 268 | 13.0 | 25.0 | 0.00 | 0.00 | 0.00 | 85 | 1013.7 |
| 20260510032439 | 55 | 222 | 13.0 | 24.0 | 0.00 | 0.00 | 0.00 | 85 | 1013.8 |
| 20260510031927 | 55 | 289 | 16.0 | 29.0 | 0.00 | 0.00 | 0.00 | 85 | 1013.7 |
| 20260510031433 | 55 | 247 | 14.0 | 23.0 | 0.00 | 0.00 | 0.00 | 85 | 1013.6 |
| 20260510030920 | 55 | 283 | 11.0 | 26.0 | 0.00 | 0.00 | 0.00 | 85 | 1013.7 |
| 20260510030421 | 55 | 282 | 12.0 | 29.0 | 0.00 | 0.00 | 0.00 | 85 | 1013.5 |
| 20260510025928 | 55 | 263 | 13.0 | 28.0 | 0.00 | 0.00 | 0.00 | 85 | 1013.4 |
| 20260510025434 | 55 | 280 | 12.0 | 25.0 | 0.00 | 0.00 | 0.00 | 85 | 1013.5 |
| 20260510024940 | 55 | 280 | 15.0 | 29.0 | 0.00 | 0.00 | 0.00 | 85 | 1013.5 |
| 20260510024426 | 55 | 278 | 13.0 | 24.0 | 0.00 | 0.00 | 0.00 | 85 | 1013.4 |
| 20260510023933 | 55 | 276 | 13.0 | 27.0 | 0.00 | 0.00 | 0.00 | 85 | 1013.4 |
| 20260510023439 | 55 | 242 | 12.0 | 27.0 | 0.00 | 0.00 | 0.00 | 84 | 1013.3 |
| 20260510022941 | 55 | 254 | 10.0 | 29.0 | 0.00 | 0.00 | 0.00 | 84 | 1013.3 |
| 20260510022427 | 55 | 294 | 15.0 | 32.0 | 0.00 | 0.00 | 0.00 | 84 | 1013.4 |
| 20260510021933 | 55 | 275 | 15.0 | 32.0 | 0.00 | 0.00 | 0.00 | 84 | 1013.4 |
| 20260510021438 | 55 | 270 | 15.0 | 27.0 | 0.00 | 0.00 | 0.00 | 84 | 1013.4 |
| 20260510020925 | 55 | 275 | 15.0 | 32.0 | 0.00 | 0.00 | 0.00 | 84 | 1013.4 |
| 20260510020434 | 55 | 259 | 18.0 | 32.0 | 0.00 | 0.00 | 0.00 | 84 | 1013.4 |
| 20260510015922 | 56 | 224 | 16.0 | 27.0 | 0.00 | 0.00 | 0.00 | 83 | 1013.3 |
| 20260510015429 | 56 | 259 | 16.0 | 32.0 | 0.00 | 0.00 | 0.00 | 83 | 1013.2 |
| 20260510014932 | 56 | 266 | 16.0 | 33.0 | 0.00 | 0.00 | 0.00 | 83 | 1013.3 |
| 20260510014438 | 56 | 252 | 18.0 | 33.0 | 0.00 | 0.00 | 0.00 | 82 | 1013.2 |
| 20260510013925 | 56 | 268 | 16.0 | 31.0 | 0.00 | 0.00 | 0.00 | 82 | 1013.5 |
| 20260510013433 | 57 | 246 | 16.0 | 31.0 | 0.00 | 0.00 | 0.00 | 82 | 1013.3 |
| 20260510012939 | 57 | 262 | 19.0 | 31.0 | 0.00 | 0.00 | 0.00 | 81 | 1013.3 |
| 20260510012427 | 57 | 212 | 17.0 | 29.0 | 0.00 | 0.00 | 0.00 | 81 | 1013.4 |
| 20260510012001 | 58 | 239 | 12.0 | 27.0 | 0.00 | 0.00 | 0.00 | 81 | 1013.5 |
| 20260510011452 | 58 | 270 | 13.0 | 27.0 | 0.00 | 0.00 | 0.00 | 81 | 1013.5 |
| 20260510010940 | 58 | 285 | 17.0 | 30.0 | 0.00 | 0.00 | 0.00 | 81 | 1013.5 |
| 20260510010447 | 58 | 259 | 11.0 | 27.0 | 0.00 | 0.00 | 0.00 | 80 | 1013.5 |
| 20260510005931 | 58 | 251 | 16.0 | 27.0 | 0.00 | 0.00 | 0.00 | 80 | 1013.5 |
| 20260510005439 | 58 | 242 | 11.0 | 28.0 | 0.00 | 0.00 | 0.00 | 80 | 1013.6 |
| 20260510004945 | 58 | 274 | 12.0 | 28.0 | 0.00 | 0.00 | 0.00 | 79 | 1013.6 |
| 20260510004426 | 59 | 186 | 9.0 | 26.0 | 0.00 | 0.00 | 0.00 | 79 | 1013.7 |
| 20260510004001 | 59 | 227 | 12.0 | 26.0 | 0.00 | 0.00 | 0.00 | 79 | 1013.6 |
| 20260510003426 | 59 | 241 | 11.0 | 24.0 | 0.00 | 0.00 | 0.00 | 79 | 1013.7 |
| 20260510002934 | 59 | 271 | 11.0 | 24.0 | 0.00 | 0.00 | 0.00 | 79 | 1013.6 |
| 20260510002421 | 59 | 256 | 12.0 | 24.0 | 0.00 | 0.00 | 0.00 | 79 | 1013.8 |
| 20260510001929 | 59 | 238 | 13.0 | 25.0 | 0.00 | 0.00 | 0.00 | 79 | 1013.6 |
| 20260510001436 | 59 | 282 | 11.0 | 25.0 | 0.00 | 0.00 | 0.00 | 79 | 1013.7 |
| 20260510000923 | 59 | 189 | 12.0 | 26.0 | 0.00 | 0.00 | 0.00 | 79 | 1013.5 |
| 20260510000449 | 59 | 275 | 15.0 | 31.0 | 0.00 | 0.00 | 0.00 | 79 | 1013.5 |
| 20260509235935 | 59 | 247 | 13.0 | 31.0 | 0.00 | 0.00 | 0.00 | 79 | 1013.5 |
| 20260509235442 | 59 | 263 | 18.0 | 32.0 | 0.00 | 0.00 | 0.00 | 79 | 1013.5 |
| 20260509234926 | 59 | 263 | 15.0 | 32.0 | 0.00 | 0.00 | 0.00 | 79 | 1013.5 |
| 20260509234430 | 59 | 249 | 14.0 | 32.0 | 0.00 | 0.00 | 0.00 | 79 | 1013.7 |
| 20260509233939 | 59 | 256 | 16.0 | 31.0 | 0.00 | 0.00 | 0.00 | 79 | 1013.6 |
| 20260509233421 | 60 | 283 | 13.0 | 26.0 | 0.00 | 0.00 | 0.00 | 78 | 1013.7 |
| 20260509232928 | 59 | 177 | 14.0 | 30.0 | 0.00 | 0.00 | 0.00 | 79 | 1013.7 |
| 20260509232436 | 59 | 272 | 16.0 | 31.0 | 0.00 | 0.00 | 0.00 | 79 | 1013.7 |
| 20260509231922 | 59 | 258 | 16.0 | 30.0 | 0.00 | 0.00 | 0.00 | 78 | 1013.7 |
| 20260509231428 | 60 | 270 | 16.0 | 30.0 | 0.00 | 0.00 | 0.00 | 78 | 1013.8 |
| 20260509230954 | 60 | 264 | 16.0 | 27.0 | 0.00 | 0.00 | 0.00 | 78 | 1013.7 |
| 20260509230438 | 60 | 273 | 14.0 | 30.0 | 0.00 | 0.00 | 0.00 | 78 | 1013.9 |
| 20260509225921 | 60 | 294 | 18.0 | 30.0 | 0.00 | 0.00 | 0.00 | 78 | 1013.8 |
| 20260509225426 | 60 | 234 | 15.0 | 30.0 | 0.00 | 0.00 | 0.00 | 78 | 1013.9 |
| 20260509224932 | 60 | 268 | 16.0 | 30.0 | 0.00 | 0.00 | 0.00 | 78 | 1014.0 |
| 20260509224438 | 60 | 282 | 16.0 | 32.0 | 0.00 | 0.00 | 0.00 | 78 | 1014.0 |
| 20260509223923 | 60 | 302 | 14.0 | 32.0 | 0.00 | 0.00 | 0.00 | 78 | 1014.1 |
| 20260509223430 | 60 | 275 | 19.0 | 29.0 | 0.00 | 0.00 | 0.00 | 78 | 1014.2 |
| 20260509222937 | 61 | 214 | 14.0 | 27.0 | 0.00 | 0.00 | 0.00 | 77 | 1014.1 |
| 20260509222425 | 61 | 243 | 13.0 | 27.0 | 0.00 | 0.00 | 0.00 | 77 | 1014.2 |
| 20260509221929 | 60 | 280 | 16.0 | 33.0 | 0.00 | 0.00 | 0.00 | 78 | 1014.2 |
| 20260509221434 | 60 | 280 | 18.0 | 33.0 | 0.00 | 0.00 | 0.00 | 77 | 1014.2 |
| 20260509220921 | 61 | 273 | 13.0 | 34.0 | 0.00 | 0.00 | 0.00 | 78 | 1014.3 |
| 20260509220430 | 61 | 271 | 16.0 | 32.0 | 0.00 | 0.00 | 0.00 | 77 | 1014.2 |
| 20260509215937 | 60 | 299 | 16.0 | 32.0 | 0.00 | 0.00 | 0.00 | 77 | 1014.2 |
| 20260509215443 | 61 | 275 | 16.0 | 32.0 | 0.00 | 0.00 | 0.00 | 76 | 1014.3 |
| 20260509215000 | 61 | 280 | 17.0 | 32.0 | 0.00 | 0.00 | 0.00 | 77 | 1014.3 |
| 20260509214421 | 61 | 256 | 13.0 | 26.0 | 0.00 | 0.00 | 0.00 | 76 | 1014.4 |
| 20260509213930 | 61 | 266 | 12.0 | 26.0 | 0.00 | 0.00 | 0.00 | 77 | 1014.7 |
| 20260509213434 | 61 | 214 | 11.0 | 26.0 | 0.00 | 0.00 | 0.00 | 77 | 1014.7 |
| 20260509212937 | 61 | 314 | 11.0 | 27.0 | 0.00 | 0.00 | 0.00 | 78 | 1014.9 |
| 20260509212423 | 60 | 263 | 15.0 | 30.0 | 0.00 | 0.00 | 0.00 | 77 | 1014.8 |